QPF
0.00 0.00 0.00 0.00 0.00 0.00 0.00 0.00 0.00 0.00 0.00 0.00 0.00 0.00 0.00 0.00 0.00 0.00 0.00 0.00 0.00 0.00 0.00 0.00 0.00 0.00 0.00 0.00 0.00 0.00 0.00 0.00 0.00 0.00 0.00 0.00 0.00 0.00 0.00 0.00 0.00 0.00 0.00
0.00 0.00 0.00 0.00 0.00 0.00 0.00 0.00 0.00 0.00 0.00 0.00 0.00 0.00 0.00 0.00 0.00 0.00 0.00 0.00 0.00 0.00 0.00 0.00 0.00 0.00 0.00 0.00 0.00 0.00 0.00 0.00 0.00 0.00 0.00 0.00 0.00 0.00 0.00 0.00 0.00 0.00 0.00
0.00 0.00 0.00 0.00 0.00 0.00 0.00 0.00 0.00 0.00 0.00 0.00 0.00 0.00 0.00 0.00 0.00 0.00 0.00 0.00 0.00 0.00 0.00 0.00 0.00 0.00 0.00 0.00 0.00 0.00 0.00 0.00 0.01 0.01 0.00 0.00 0.00 0.00 0.00 0.00 0.00 0.00 0.00
0.00 0.00 0.00 0.00 0.00 0.00 0.00 0.00 0.00 0.00 0.00 0.00 0.00 0.00 0.00 0.00 0.00 0.00 0.00 0.00 0.00 0.00 0.00 0.00 0.00 0.00 0.00 0.00 0.00 0.01 0.01 0.01 0.01 0.01 0.01 0.00 0.00 0.00 0.00 0.00 0.00 0.00 0.00
0.00 0.00 0.00 0.00 0.00 0.00 0.00 0.00 0.00 0.00 0.00 0.00 0.00 0.00 0.00 0.00 0.00 0.00 0.00 0.00 0.00 0.00 0.00 0.00 0.00 0.01 0.01 0.01 0.01 0.01 0.01 0.02 0.02 0.02 0.02 0.01 0.01 0.01 0.01 0.00 0.00 0.00 0.00
0.00 0.00 0.00 0.00 0.00 0.00 0.00 0.00 0.00 0.00 0.00 0.00 0.00 0.00 0.00 0.00 0.00 0.01 0.01 0.01 0.01 0.01 0.01 0.01 0.01 0.01 0.01 0.02 0.03 0.04 0.04 0.05 0.05 0.04 0.03 0.02 0.01 0.01 0.01 0.02 0.02 0.02 0.02
0.00 0.00 0.00 0.00 0.00 0.00 0.00 0.00 0.00 0.00 0.00 0.00 0.00 0.00 0.00 0.00 0.00 0.01 0.01 0.02 0.01 0.01 0.01 0.01 0.01 0.01 0.02 0.02 0.02 0.03 0.04 0.05 0.07 0.08 0.07 0.04 0.02 0.02 0.03 0.04 0.03 0.02 0.01
0.00 0.00 0.00 0.00 0.00 0.00 0.00 0.00 0.00 0.00 0.00 0.00 0.00 0.00 0.00 0.00 0.00 0.01 0.02 0.02 0.01 0.01 0.01 0.01 0.01 0.02 0.02 0.02 0.03 0.02 0.02 0.02 0.03 0.06 0.07 0.05 0.03 0.03 0.04 0.05 0.04 0.04 0.03
0.00 0.00 0.00 0.00 0.00 0.00 0.00 0.00 0.00 0.00 0.00 0.00 0.00 0.00 0.00 0.00 0.00 0.01 0.02 0.02 0.02 0.01 0.01 0.01 0.02 0.02 0.02 0.03 0.04 0.04 0.02 0.02 0.02 0.04 0.05 0.05 0.05 0.05 0.07 0.09 0.11 0.11 0.07
0.00 0.00 0.00 0.00 0.00 0.00 0.00 0.00 0.00 0.00 0.00 0.00 0.00 0.00 0.00 0.00 0.00 0.01 0.02 0.02 0.02 0.02 0.02 0.02 0.02 0.03 0.03 0.04 0.05 0.05 0.04 0.02 0.02 0.03 0.04 0.05 0.05 0.06 0.08 0.10 0.09 0.09 0.06
0.00 0.00 0.00 0.00 0.00 0.00 0.00 0.00 0.00 0.00 0.00 0.00 0.00 0.00 0.00 0.00 0.01 0.01 0.02 0.03 0.03 0.04 0.03 0.03 0.02 0.03 0.03 0.04 0.05 0.05 0.04 0.03 0.03 0.03 0.03 0.03 0.04 0.05 0.06 0.10 0.09 0.07 0.06
0.00 0.00 0.00 0.00 0.00 0.00 0.00 0.00 0.00 0.00 0.00 0.00 0.00 0.00 0.00 0.00 0.01 0.01 0.02 0.03 0.03 0.04 0.03 0.02 0.01 0.02 0.03 0.04 0.04 0.04 0.05 0.05 0.05 0.05 0.04 0.03 0.03 0.03 0.03 0.05 0.09 0.08 0.05
0.00 0.00 0.00 0.00 0.00 0.00 0.00 0.01 0.01 0.00 0.01 0.01 0.01 0.01 0.00 0.00 0.00 0.01 0.01 0.02 0.02 0.03 0.02 0.02 0.03 0.03 0.03 0.03 0.03 0.04 0.05 0.05 0.06 0.06 0.05 0.03 0.01 0.01 0.02 0.04 0.06 0.08 0.08
0.00 0.00 0.00 0.00 0.00 0.00 0.00 0.01 0.01 0.01 0.01 0.01 0.01 0.01 0.01 0.01 0.01 0.01 0.01 0.02 0.02 0.02 0.02 0.02 0.02 0.02 0.02 0.02 0.02 0.02 0.03 0.04 0.05 0.05 0.03 0.02 0.02 0.02 0.02 0.03 0.04 0.06 0.08
0.00 0.00 0.00 0.00 0.00 0.00 0.00 0.00 0.01 0.01 0.01 0.03 0.03 0.03 0.03 0.02 0.02 0.03 0.03 0.03 0.03 0.03 0.03 0.03 0.02 0.02 0.02 0.01 0.01 0.01 0.01 0.02 0.03 0.04 0.04 0.03 0.03 0.03 0.02 0.02 0.03 0.04 0.05
0.00 0.00 0.00 0.00 0.00 0.00 0.01 0.00 0.00 0.01 0.01 0.01 0.01 0.02 0.02 0.02 0.02 0.03 0.03 0.03 0.03 0.03 0.04 0.03 0.02 0.02 0.02 0.02 0.02 0.01 0.01 0.01 0.02 0.02 0.03 0.03 0.03 0.03 0.02 0.03 0.04 0.04 0.03
0.00 0.00 0.00 0.01 0.01 0.01 0.01 0.01 0.01 0.01 0.00 0.00 0.01 0.01 0.01 0.01 0.02 0.02 0.02 0.02 0.02 0.02 0.03 0.03 0.02 0.02 0.02 0.01 0.01 0.01 0.01 0.01 0.01 0.02 0.03 0.03 0.03 0.03 0.03 0.03 0.03 0.03 0.03
0.00 0.00 0.01 0.01 0.01 0.01 0.02 0.02 0.02 0.02 0.01 0.00 0.00 0.00 0.00 0.01 0.01 0.01 0.02 0.02 0.01 0.01 0.01 0.02 0.02 0.01 0.02 0.02 0.01 0.01 0.01 0.02 0.02 0.02 0.02 0.02 0.03 0.04 0.04 0.03 0.03 0.03 0.02
0.00 0.00 0.01 0.01 0.01 0.01 0.01 0.02 0.02 0.01 0.01 0.01 0.00 0.00 0.00 0.01 0.01 0.01 0.01 0.02 0.02 0.01 0.01 0.01 0.01 0.02 0.02 0.02 0.02 0.01 0.02 0.02 0.02 0.02 0.02 0.02 0.02 0.03 0.03 0.02 0.02 0.02 0.03
0.00 0.01 0.01 0.01 0.01 0.01 0.01 0.02 0.02 0.02 0.01 0.01 0.01 0.00 0.01 0.02 0.02 0.01 0.01 0.01 0.02 0.02 0.01 0.02 0.02 0.02 0.02 0.02 0.02 0.02 0.02 0.02 0.02 0.02 0.02 0.02 0.02 0.02 0.02 0.02 0.02 0.02 0.03
0.01 0.01 0.01 0.01 0.01 0.01 0.02 0.02 0.02 0.02 0.02 0.01 0.01 0.00 0.02 0.04 0.03 0.01 0.01 0.01 0.01 0.02 0.01 0.01 0.01 0.01 0.02 0.02 0.02 0.02 0.02 0.01 0.01 0.02 0.02 0.02 0.02 0.02 0.02 0.02 0.02 0.02 0.02
0.01 0.01 0.02 0.02 0.02 0.01 0.02 0.02 0.02 0.02 0.02 0.01 0.01 0.01 0.01 0.01 0.01 0.01 0.01 0.01 0.01 0.01 0.01 0.02 0.01 0.01 0.01 0.02 0.02 0.02 0.01 0.01 0.01 0.01 0.02 0.02 0.02 0.02 0.02 0.02 0.03 0.02 0.03
0.02 0.02 0.02 0.01 0.01 0.01 0.01 0.01 0.01 0.02 0.01 0.01 0.01 0.01 0.01 0.01 0.01 0.01 0.01 0.01 0.01 0.01 0.01 0.01 0.02 0.01 0.01 0.01 0.02 0.02 0.02 0.01 0.01 0.02 0.02 0.02 0.02 0.02 0.02 0.02 0.02 0.02 0.02
0.02 0.02 0.02 0.01 0.01 0.01 0.01 0.01 0.01 0.01 0.01 0.01 0.01 0.01 0.01 0.01 0.01 0.01 0.01 0.01 0.01 0.01 0.01 0.01 0.01 0.01 0.01 0.02 0.02 0.02 0.02 0.02 0.02 0.03 0.03 0.03 0.02 0.02 0.02 0.02 0.02 0.02 0.02
0.02 0.02 0.02 0.01 0.02 0.02 0.01 0.01 0.01 0.01 0.01 0.02 0.02 0.02 0.01 0.01 0.01 0.01 0.01 0.01 0.01 0.01 0.01 0.01 0.01 0.01 0.01 0.02 0.02 0.02 0.02 0.02 0.03 0.04 0.05 0.05 0.04 0.03 0.02 0.02 0.02 0.02 0.02
0.01 0.01 0.01 0.01 0.01 0.02 0.02 0.02 0.01 0.01 0.02 0.02 0.02 0.02 0.02 0.02 0.01 0.01 0.01 0.01 0.01 0.01 0.01 0.01 0.01 0.01 0.01 0.02 0.02 0.02 0.02 0.03 0.03 0.04 0.05 0.07 0.06 0.04 0.03 0.03 0.03 0.03 0.03
MSLP
1021.68 1021.29 1020.81 1020.24 1019.61 1018.95 1018.29 1017.65 1017.05 1016.49 1015.96 1015.42 1014.86 1014.25 1013.59 1012.88 1012.14 1011.40 1010.71 1010.11 1009.63 1009.29 1009.08 1008.98 1008.95 1008.94 1008.92 1008.84 1008.69 1008.44 1008.13 1007.78 1007.41 1007.07 1006.79 1006.60 1006.49 1006.48 1006.53 1006.63 1006.76 1006.89 1007.00
1021.51 1021.13 1020.64 1020.06 1019.42 1018.74 1018.06 1017.40 1016.78 1016.20 1015.64 1015.08 1014.49 1013.86 1013.16 1012.41 1011.62 1010.82 1010.06 1009.37 1008.81 1008.38 1008.09 1007.93 1007.85 1007.82 1007.80 1007.75 1007.63 1007.45 1007.20 1006.91 1006.61 1006.33 1006.10 1005.93 1005.84 1005.83 1005.87 1005.94 1006.03 1006.12 1006.19
1021.32 1020.93 1020.43 1019.85 1019.19 1018.49 1017.78 1017.09 1016.44 1015.82 1015.23 1014.64 1014.03 1013.37 1012.65 1011.87 1011.06 1010.23 1009.43 1008.70 1008.07 1007.58 1007.22 1006.99 1006.85 1006.78 1006.73 1006.67 1006.56 1006.41 1006.21 1005.98 1005.74 1005.52 1005.34 1005.22 1005.16 1005.16 1005.19 1005.26 1005.32 1005.37 1005.40
1021.10 1020.69 1020.18 1019.58 1018.90 1018.17 1017.44 1016.71 1016.02 1015.35 1014.72 1014.09 1013.45 1012.77 1012.05 1011.27 1010.46 1009.63 1008.83 1008.09 1007.44 1006.90 1006.49 1006.19 1005.99 1005.85 1005.75 1005.64 1005.52 1005.36 1005.18 1004.97 1004.78 1004.60 1004.47 1004.39 1004.37 1004.39 1004.44 1004.50 1004.55 1004.59 1004.59
1020.82 1020.39 1019.86 1019.24 1018.54 1017.79 1017.02 1016.26 1015.52 1014.81 1014.13 1013.46 1012.79 1012.10 1011.38 1010.62 1009.84 1009.04 1008.27 1007.55 1006.90 1006.35 1005.90 1005.54 1005.27 1005.05 1004.87 1004.69 1004.50 1004.30 1004.08 1003.87 1003.68 1003.53 1003.42 1003.38 1003.39 1003.45 1003.53 1003.61 1003.68 1003.71 1003.72
1020.48 1020.02 1019.47 1018.82 1018.11 1017.34 1016.54 1015.75 1014.97 1014.23 1013.50 1012.80 1012.11 1011.41 1010.70 1009.97 1009.23 1008.48 1007.76 1007.07 1006.45 1005.90 1005.42 1005.02 1004.67 1004.36 1004.07 1003.79 1003.51 1003.22 1002.94 1002.68 1002.46 1002.29 1002.19 1002.17 1002.21 1002.30 1002.42 1002.54 1002.65 1002.72 1002.75
1020.04 1019.55 1018.97 1018.32 1017.59 1016.82 1016.02 1015.21 1014.41 1013.64 1012.89 1012.17 1011.46 1010.77 1010.07 1009.37 1008.67 1007.97 1007.30 1006.66 1006.07 1005.52 1005.02 1004.57 1004.15 1003.74 1003.34 1002.94 1002.54 1002.14 1001.76 1001.42 1001.14 1000.93 1000.82 1000.79 1000.84 1000.96 1001.12 1001.29 1001.45 1001.58 1001.68
1019.50 1018.98 1018.39 1017.74 1017.02 1016.26 1015.47 1014.67 1013.88 1013.10 1012.35 1011.61 1010.91 1010.21 1009.53 1008.85 1008.19 1007.54 1006.91 1006.30 1005.72 1005.18 1004.66 1004.15 1003.66 1003.16 1002.65 1002.13 1001.60 1001.08 1000.59 1000.15 999.79 999.52 999.36 999.31 999.37 999.50 999.69 999.91 1000.13 1000.33 1000.50
1018.88 1018.34 1017.75 1017.11 1016.41 1015.68 1014.92 1014.15 1013.38 1012.62 1011.88 1011.15 1010.45 1009.76 1009.09 1008.43 1007.79 1007.17 1006.56 1005.97 1005.40 1004.84 1004.29 1003.74 1003.17 1002.59 1001.99 1001.36 1000.73 1000.10 999.51 998.98 998.53 998.19 997.97 997.87 997.90 998.02 998.22 998.47 998.74 999.01 999.26
1018.21 1017.67 1017.09 1016.46 1015.79 1015.10 1014.38 1013.65 1012.92 1012.19 1011.47 1010.77 1010.08 1009.41 1008.75 1008.10 1007.47 1006.85 1006.24 1005.65 1005.07 1004.49 1003.91 1003.31 1002.70 1002.05 1001.38 1000.68 999.98 999.28 998.61 997.99 997.47 997.05 996.76 996.60 996.57 996.66 996.84 997.09 997.38 997.69 998.00
1017.55 1017.01 1016.43 1015.83 1015.19 1014.52 1013.84 1013.15 1012.46 1011.77 1011.09 1010.42 1009.75 1009.10 1008.45 1007.81 1007.18 1006.56 1005.95 1005.34 1004.74 1004.14 1003.53 1002.90 1002.25 1001.58 1000.88 1000.15 999.41 998.67 997.96 997.30 996.71 996.23 995.86 995.62 995.51 995.52 995.64 995.85 996.12 996.44 996.79
1016.93 1016.39 1015.82 1015.22 1014.60 1013.96 1013.30 1012.64 1011.98 1011.33 1010.68 1010.04 1009.41 1008.78 1008.16 1007.53 1006.91 1006.29 1005.67 1005.05 1004.43 1003.81 1003.18 1002.54 1001.89 1001.21 1000.52 999.80 999.07 998.34 997.62 996.94 996.32 995.77 995.33 994.99 994.78 994.68 994.70 994.82 995.03 995.31 995.65
1016.37 1015.83 1015.26 1014.66 1014.03 1013.39 1012.73 1012.08 1011.44 1010.82 1010.20 1009.60 1009.00 1008.41 1007.82 1007.23 1006.62 1006.02 1005.40 1004.78 1004.16 1003.54 1002.91 1002.28 1001.64 1001.00 1000.34 999.67 998.98 998.29 997.60 996.93 996.29 995.70 995.17 994.73 994.39 994.16 994.04 994.03 994.13 994.32 994.61
1015.87 1015.33 1014.75 1014.12 1013.46 1012.79 1012.12 1011.47 1010.83 1010.21 1009.62 1009.05 1008.50 1007.96 1007.42 1006.87 1006.32 1005.75 1005.16 1004.56 1003.95 1003.35 1002.74 1002.13 1001.54 1000.94 1000.34 999.74 999.12 998.49 997.85 997.20 996.56 995.92 995.32 994.77 994.29 993.90 993.62 993.44 993.39 993.47 993.65
1015.41 1014.86 1014.24 1013.58 1012.89 1012.18 1011.47 1010.78 1010.13 1009.51 1008.94 1008.41 1007.91 1007.43 1006.96 1006.48 1005.99 1005.47 1004.94 1004.38 1003.81 1003.24 1002.67 1002.10 1001.55 1001.02 1000.49 999.96 999.42 998.86 998.27 997.66 997.01 996.34 995.67 995.01 994.39 993.83 993.37 993.02 992.80 992.72 992.78
1014.94 1014.37 1013.73 1013.03 1012.29 1011.53 1010.78 1010.06 1009.38 1008.76 1008.21 1007.71 1007.26 1006.84 1006.44 1006.04 1005.63 1005.19 1004.73 1004.23 1003.72 1003.19 1002.66 1002.15 1001.65 1001.17 1000.70 1000.23 999.76 999.26 998.73 998.14 997.50 996.80 996.07 995.31 994.56 993.85 993.22 992.69 992.30 992.06 991.99
1014.41 1013.83 1013.17 1012.45 1011.67 1010.87 1010.08 1009.33 1008.63 1008.00 1007.45 1006.98 1006.58 1006.22 1005.90 1005.58 1005.25 1004.89 1004.50 1004.07 1003.62 1003.15 1002.67 1002.19 1001.74 1001.30 1000.88 1000.46 1000.04 999.59 999.09 998.53 997.89 997.17 996.39 995.56 994.71 993.87 993.09 992.41 991.86 991.47 991.27
1013.79 1013.22 1012.56 1011.83 1011.03 1010.21 1009.40 1008.62 1007.91 1007.27 1006.72 1006.27 1005.90 1005.59 1005.32 1005.07 1004.81 1004.53 1004.21 1003.86 1003.46 1003.04 1002.60 1002.17 1001.74 1001.33 1000.94 1000.56 1000.16 999.74 999.27 998.72 998.09 997.37 996.56 995.68 994.76 993.83 992.95 992.15 991.48 990.98 990.66
1013.09 1012.54 1011.90 1011.18 1010.39 1009.58 1008.76 1007.97 1007.24 1006.59 1006.04 1005.59 1005.23 1004.95 1004.71 1004.51 1004.31 1004.08 1003.83 1003.52 1003.18 1002.81 1002.41 1002.00 1001.60 1001.21 1000.83 1000.46 1000.08 999.68 999.22 998.69 998.07 997.35 996.54 995.65 994.70 993.74 992.81 991.94 991.20 990.61 990.21
1012.31 1011.79 1011.19 1010.51 1009.76 1008.97 1008.16 1007.38 1006.64 1005.98 1005.42 1004.95 1004.58 1004.29 1004.06 1003.87 1003.70 1003.52 1003.30 1003.05 1002.75 1002.42 1002.06 1001.68 1001.29 1000.92 1000.55 1000.18 999.80 999.40 998.95 998.44 997.84 997.15 996.36 995.49 994.57 993.62 992.68 991.81 991.04 990.42 989.98
1011.48 1011.01 1010.47 1009.84 1009.14 1008.39 1007.61 1006.83 1006.09 1005.42 1004.82 1004.32 1003.91 1003.59 1003.35 1003.16 1002.99 1002.82 1002.63 1002.42 1002.16 1001.87 1001.54 1001.19 1000.83 1000.46 1000.10 999.73 999.35 998.95 998.51 998.02 997.45 996.80 996.06 995.25 994.39 993.50 992.61 991.78 991.04 990.43 989.99
1010.64 1010.23 1009.75 1009.18 1008.53 1007.83 1007.07 1006.31 1005.56 1004.86 1004.23 1003.68 1003.22 1002.86 1002.57 1002.35 1002.17 1002.01 1001.85 1001.66 1001.44 1001.19 1000.90 1000.59 1000.25 999.90 999.54 999.17 998.79 998.39 997.96 997.49 996.96 996.36 995.69 994.96 994.19 993.40 992.61 991.86 991.19 990.64 990.23
1009.82 1009.46 1009.03 1008.52 1007.93 1007.26 1006.53 1005.78 1005.02 1004.29 1003.61 1003.00 1002.49 1002.07 1001.74 1001.49 1001.29 1001.13 1000.98 1000.83 1000.65 1000.44 1000.19 999.91 999.60 999.27 998.92 998.55 998.16 997.76 997.34 996.88 996.39 995.85 995.26 994.63 993.97 993.30 992.64 992.02 991.46 990.99 990.65
1009.03 1008.70 1008.31 1007.85 1007.29 1006.65 1005.95 1005.20 1004.43 1003.67 1002.95 1002.30 1001.74 1001.27 1000.89 1000.61 1000.39 1000.23 1000.10 999.98 999.84 999.67 999.47 999.22 998.94 998.62 998.27 997.89 997.49 997.08 996.65 996.21 995.75 995.26 994.75 994.23 993.69 993.15 992.64 992.16 991.73 991.39 991.14
1008.25 1007.95 1007.58 1007.14 1006.61 1006.00 1005.31 1004.56 1003.79 1003.01 1002.26 1001.57 1000.97 1000.47 1000.06 999.76 999.54 999.38 999.26 999.16 999.06 998.93 998.75 998.53 998.26 997.94 997.58 997.18 996.76 996.33 995.88 995.44 994.99 994.55 994.11 993.68 993.27 992.87 992.51 992.18 991.91 991.69 991.56
1007.47 1007.17 1006.82 1006.39 1005.88 1005.28 1004.61 1003.87 1003.09 1002.31 1001.55 1000.85 1000.23 999.71 999.29 998.97 998.75 998.59 998.49 998.41 998.32 998.21 998.05 997.83 997.55 997.21 996.82 996.39 995.93 995.45 994.98 994.52 994.08 993.67 993.29 992.95 992.64 992.38 992.16 991.99 991.86 991.79 991.77
Thickness
5544 5540 5536 5532 5527 5522 5518 5514 5509 5504 5499 5494 5488 5483 5477 5471 5465 5459 5455 5450 5445 5441 5435 5430 5427 5421 5416 5413 5409 5406 5404 5401 5405 5428 5426 5423 5420 5422 5422 5421 5424 5427 5433
5532 5527 5523 5518 5513 5509 5505 5499 5493 5488 5483 5477 5471 5465 5460 5454 5448 5442 5438 5432 5427 5424 5419 5413 5410 5404 5400 5396 5392 5391 5389 5387 5386 5399 5410 5405 5402 5402 5403 5404 5405 5408 5414
5519 5515 5511 5506 5501 5496 5490 5484 5478 5472 5467 5460 5454 5449 5444 5438 5432 5425 5420 5415 5411 5407 5402 5397 5394 5388 5386 5382 5379 5378 5377 5375 5374 5379 5391 5390 5387 5387 5386 5388 5389 5391 5395
5507 5502 5497 5492 5486 5481 5475 5469 5463 5457 5451 5445 5439 5433 5428 5422 5416 5409 5403 5398 5395 5391 5387 5383 5380 5376 5373 5370 5368 5367 5365 5364 5364 5366 5373 5376 5374 5373 5371 5373 5375 5377 5380
5494 5489 5484 5478 5472 5466 5460 5454 5448 5442 5435 5429 5424 5419 5413 5407 5401 5393 5387 5383 5381 5379 5377 5374 5371 5368 5365 5362 5360 5358 5356 5355 5355 5356 5361 5363 5364 5361 5361 5361 5362 5365 5368
5481 5476 5470 5464 5458 5452 5446 5440 5433 5427 5422 5416 5410 5405 5400 5393 5387 5380 5373 5372 5371 5370 5369 5367 5365 5362 5360 5357 5357 5356 5353 5350 5350 5350 5353 5355 5358 5355 5353 5352 5351 5352 5357
5468 5462 5457 5451 5445 5438 5432 5425 5420 5414 5409 5403 5397 5391 5387 5382 5374 5369 5364 5361 5362 5362 5361 5359 5358 5356 5354 5352 5351 5351 5350 5350 5348 5346 5347 5349 5349 5348 5345 5344 5343 5345 5349
5455 5450 5444 5437 5431 5424 5417 5411 5406 5400 5395 5390 5384 5378 5373 5370 5363 5359 5355 5353 5354 5354 5352 5351 5349 5349 5347 5345 5344 5343 5343 5343 5343 5342 5342 5343 5342 5340 5338 5337 5337 5336 5338
5444 5438 5430 5423 5417 5410 5403 5397 5391 5386 5382 5376 5371 5365 5362 5359 5354 5350 5346 5346 5347 5347 5346 5344 5342 5341 5341 5339 5337 5337 5339 5339 5338 5338 5338 5338 5337 5335 5333 5330 5329 5327 5330
5432 5424 5416 5408 5401 5396 5390 5384 5378 5372 5368 5363 5359 5354 5350 5348 5345 5341 5339 5338 5340 5340 5341 5339 5337 5336 5336 5334 5332 5332 5333 5334 5333 5332 5332 5332 5331 5330 5330 5327 5325 5323 5324
5418 5410 5402 5394 5387 5382 5376 5371 5365 5360 5355 5352 5348 5345 5341 5339 5337 5335 5332 5331 5331 5332 5333 5333 5332 5331 5330 5330 5329 5328 5329 5329 5328 5327 5327 5327 5325 5324 5323 5321 5319 5317 5317
5405 5398 5390 5383 5375 5368 5363 5359 5352 5347 5343 5341 5338 5336 5334 5331 5329 5328 5326 5325 5325 5325 5327 5328 5327 5326 5326 5326 5326 5326 5325 5324 5323 5323 5323 5322 5321 5320 5318 5315 5313 5310 5309
5391 5385 5378 5371 5363 5356 5350 5346 5341 5335 5331 5329 5327 5327 5327 5325 5323 5322 5321 5321 5320 5320 5321 5321 5322 5322 5321 5322 5322 5321 5320 5318 5317 5317 5317 5317 5316 5314 5311 5308 5305 5302 5300
5378 5372 5365 5359 5353 5346 5339 5333 5328 5324 5321 5318 5318 5319 5320 5319 5318 5317 5316 5316 5316 5316 5316 5317 5317 5317 5316 5315 5315 5315 5313 5312 5311 5311 5310 5310 5308 5306 5304 5301 5299 5296 5294
5365 5359 5352 5345 5339 5335 5330 5324 5318 5315 5310 5309 5310 5310 5310 5313 5313 5311 5310 5311 5311 5311 5311 5312 5313 5312 5312 5311 5310 5309 5308 5306 5305 5304 5303 5302 5301 5299 5297 5294 5292 5290 5289
5351 5345 5339 5332 5327 5322 5320 5319 5315 5310 5309 5306 5305 5304 5305 5306 5307 5307 5307 5307 5307 5307 5306 5307 5307 5307 5305 5305 5304 5303 5302 5301 5299 5298 5296 5295 5294 5293 5291 5288 5285 5284 5284
5336 5331 5325 5320 5316 5312 5309 5308 5311 5312 5307 5304 5303 5302 5301 5302 5302 5303 5303 5303 5302 5301 5300 5300 5299 5299 5298 5298 5297 5296 5296 5295 5293 5291 5290 5288 5287 5286 5284 5282 5279 5277 5277
5325 5319 5313 5309 5306 5303 5301 5300 5300 5302 5304 5305 5302 5299 5298 5298 5298 5298 5298 5298 5298 5297 5294 5293 5292 5292 5291 5291 5291 5290 5290 5288 5286 5285 5283 5282 5280 5278 5277 5275 5273 5271 5270
5314 5310 5305 5301 5298 5296 5295 5294 5294 5293 5295 5297 5298 5298 5296 5295 5295 5294 5293 5292 5292 5291 5290 5288 5287 5286 5286 5286 5285 5284 5283 5282 5280 5278 5277 5275 5273 5271 5270 5269 5267 5264 5261
5306 5301 5296 5293 5292 5290 5289 5288 5288 5288 5289 5290 5291 5292 5292 5291 5292 5291 5289 5288 5287 5286 5285 5284 5283 5282 5281 5280 5279 5278 5277 5276 5274 5272 5271 5269 5267 5266 5264 5262 5260 5258 5256
5297 5294 5290 5287 5286 5284 5283 5283 5282 5283 5283 5284 5285 5286 5284 5284 5286 5286 5285 5284 5282 5281 5280 5279 5278 5277 5276 5275 5273 5272 5270 5270 5269 5267 5265 5264 5261 5259 5258 5256 5255 5252 5250
5287 5286 5284 5282 5281 5279 5278 5278 5278 5278 5279 5279 5281 5282 5281 5280 5281 5281 5280 5280 5278 5277 5275 5273 5273 5272 5270 5269 5268 5267 5266 5265 5264 5262 5260 5258 5256 5254 5252 5250 5248 5246 5244
5281 5279 5278 5277 5275 5275 5274 5274 5273 5274 5274 5275 5276 5277 5277 5277 5277 5276 5276 5275 5274 5273 5271 5269 5268 5267 5266 5264 5263 5262 5261 5261 5259 5257 5255 5253 5251 5249 5248 5246 5243 5241 5239
5275 5273 5272 5271 5270 5269 5269 5269 5269 5269 5270 5270 5271 5272 5273 5273 5273 5273 5272 5271 5270 5269 5267 5266 5264 5263 5262 5260 5259 5258 5257 5256 5253 5252 5250 5248 5247 5245 5243 5241 5239 5237 5235
5269 5267 5266 5265 5265 5264 5265 5264 5264 5265 5266 5267 5267 5269 5269 5270 5270 5269 5269 5267 5266 5265 5264 5263 5261 5261 5260 5258 5257 5255 5254 5252 5250 5248 5246 5245 5243 5241 5239 5237 5235 5233 5230
5264 5262 5261 5260 5260 5260 5260 5260 5261 5261 5262 5263 5264 5265 5266 5266 5266 5266 5265 5264 5263 5262 5261 5260 5259 5258 5256 5256 5255 5254 5253 5252 5250 5248 5245 5244 5242 5240 5237 5235 5232 5230 5227